SCP
0 0 0 0 0 0 0 0 0 0 0 0 0 0 0 0 0 0 0 0 0 0 0 0 0 0 0 0 0 0 0 0 0 0 0 0 0 0 0 0 0 0 0
0 0 0 0 0 0 0 0 0 0 0 0 0 0 0 0 0 0 0 0 0 0 0 0 0 0 0 0 0 0 0 0 0 0 0 0 0 0 0 0 0 0 0
0 0 0 0 0 0 0 0 0 0 0 0 0 0 0 0 0 0 0 0 0 0 0 0 0 0 0 0 0 0 0 0 0 0 0 0 0 0 0 0 0 0 0
0 0 0 0 0 0 0 0 0 0 0 0 0 0 0 0 0 0 0 0 0 0 0 0 0 0 0 0 0 0 0 0 0 0 0 0 0 0 0 0 0 0 0
0 0 0 0 0 0 0 0 0 0 0 0 0 0 0 0 0 0 0 0 0 0 0 0 0 0 0 0 0 0 0 0 0 0 0 0 0 0 0 0 0 0 0
0 0 0 0 0 0 0 0 0 0 0 0 0 0 0 0 0 0 0 0 0 0 0 0 0 0 0 0 0 0 0 0 0 0 0 0 0 0 0 0 0 0 0
0 0 0 0 0 0 0 0 0 0 0 0 0 0 0 0 0 0 0 0 0 0 0 0 0 0 0 0 0 0 0 0 0 0 0 0 0 0 0 0 0 0 0
0 0 0 0 0 0 0 0 0 0 0 0 0 0 0 0 0 0 0 0 0 0 0 0 0 0 0 0 0 0 0 0 0 0 0 0 0 0 0 0 0 0 0
0 0 0 0 0 0 0 0 0 0 0 0 0 0 0 0 0 0 0 0 0 0 0 0 0 0 0 0 0 0 0 0 0 0 0 0 0 0 0 0 0 0 0
0 0 0 0 0 0 0 0 0 0 0 0 0 0 0 0 0 0 0 0 0 0 0 0 0 0 0 0 0 0 0 0 0 0 0 0 0 0 0 0 0 0 0
0 0 0 0 0 0 0 0 0 0 0 0 0 0 0 0 0 0 0 0 0 0 0 0 0 0 0 0 0 0 0 0 0 0 0 0 0 0 0 0 0 0 0
0 0 0 0 0 0 0 0 0 0 0 0 0 0 0 0 0 0 0 0 0 0 0 0 0 0 0 0 0 0 0 0 0 0 0 0 0 0 0 0 0 0 0
0 0 0 0 0 0 0 0 0 0 0 0 0 0 0 0 0 0 0 0 0 0 0 0 0 0 0 0 0 0 0 0 0 0 0 0 0 0 0 0 0 0 0
0 0 0 0 0 0 0 0 0 0 0 0 0 0 0 0 0 0 0 0 0 0 0 0 0 0 0 0 0 0 0 0 0 0 0 0 0 0 0 0 0 0 0
0 0 0 0 0 0 0 0 0 0 0 0 0 0 0 0 0 0 0 0 0 0 0 0 0 0 0 0 0 0 0 0 0 0 0 0 0 0 0 0 0 0 0
0 0 0 0 0 0 0 0 0 0 0 0 0 0 0 0 0 0 0 0 0 0 0 0 0 0 0 0 0 0 0 0 0 0 0 0 0 0 0 0 0 0 0
0 0 0 0 0 0 0 0 0 0 0 0 0 0 0 0 0 0 0 0 0 0 0 0 0 0 0 0 0 0 0 0 0 0 0 0 0 0 0 0 0 0 0
0 0 0 0 0 0 0 0 0 0 0 0 0 0 0 0 0 0 0 0 0 0 0 0 0 0 0 0 0 0 0 0 0 0 0 0 0 0 0 0 0 0 0
0 0 0 0 0 0 0 0 0 0 0 0 0 0 0 0 0 0 0 0 0 0 0 0 0 0 0 0 0 0 0 0 0 0 0 0 0 0 0 0 0 0 0
0 0 0 0 0 0 0 0 0 0 0 0 0 0 0 0 0 0 0 0 0 0 0 0 0 0 0 0 0 0 0 0 0 0 0 0 0 0 0 0 0 0 0
0 0 0 0 0 0 0 0 0 0 0 0 0 0 0 0 0 0 0 0 0 0 0 0 0 0 0 0 0 0 0 0 0 0 0 0 0 0 0 0 0 0 0
0 0 0 0 0 0 0 0 0 0 0 0 0 0 0 0 0 0 0 0 0 0 0 0 0 0 0 0 0 0 0 0 0 0 0 0 0 0 0 0 0 0 0
0 0 0 0 0 0 0 0 0 0 0 0 0 0 0 0 0 0 0 0 0 0 0 0 0 0 0 0 0 0 0 0 0 0 0 0 0 0 0 0 0 0 0
0 0 0 0 0 0 0 0 0 0 0 0 0 0 0 0 0 0 0 0 0 0 0 0 0 0 0 0 0 0 0 0 0 0 0 0 0 0 0 0 0 0 0
0 0 0 1 1 1 0 0 0 0 0 0 0 0 0 0 0 0 0 0 0 0 0 0 0 0 0 0 0 0 0 0 0 0 0 0 0 0 0 0 0 0 0
0 0 0 1 1 1 1 0 0 0 0 0 0 0 0 0 0 0 0 0 0 0 0 0 0 0 0 0 0 0 0 0 0 0 0 0 0 0 0 0 0 0 0
Wind_Speed
4 6 9 9 11 11 12 13 13 13 13 13 13 13 13 12 12 11 10 11 10 10 10 9 9 9 8 8 8 9 8 8 7 8 8 8 8 8 8 8 7 8 12
6 8 11 10 11 11 11 12 13 13 13 13 12 12 12 12 11 11 10 10 10 10 9 9 9 9 8 8 8 8 8 7 7 7 8 8 8 7 7 5 2 7 11
8 9 11 10 10 10 11 11 12 12 12 12 12 11 11 11 11 10 10 9 9 9 9 9 9 8 8 8 7 7 7 7 6 6 6 6 8 8 7 6 7 9 9
9 9 10 10 10 10 10 11 12 12 12 12 12 11 11 10 10 9 9 9 8 8 8 8 8 8 7 7 7 7 6 6 5 5 5 4 6 10 7 7 7 8 8
10 9 11 10 9 9 10 11 12 11 11 11 11 10 10 9 8 8 8 8 8 8 8 8 7 7 6 6 7 6 6 5 4 5 3 3 5 9 8 7 7 7 8
10 10 12 10 10 10 11 12 11 11 10 10 10 9 9 8 8 7 7 7 7 7 7 7 6 6 6 6 6 5 5 4 7 3 3 3 5 9 7 7 8 8 8
10 10 12 10 10 10 11 11 10 10 9 9 9 8 7 7 7 6 6 6 6 6 5 6 6 5 5 5 5 4 4 4 3 2 2 3 5 7 6 6 7 7 7
10 10 11 11 9 10 10 10 9 9 8 8 7 7 6 6 6 5 5 5 5 5 4 5 5 4 4 3 4 4 4 6 4 3 2 3 7 6 5 5 6 7 7
9 9 9 10 10 10 9 8 8 7 7 7 6 6 6 5 5 5 4 5 4 4 4 4 4 4 3 4 4 4 4 5 5 2 3 3 7 5 5 5 6 6 7
8 8 8 8 8 8 9 9 7 6 6 6 5 5 5 6 6 5 5 5 4 3 4 4 4 4 4 3 4 5 6 8 5 4 3 5 7 5 6 6 7 7 7
7 7 7 7 7 6 7 9 7 7 6 6 6 6 5 4 4 5 4 4 3 3 3 4 3 3 4 6 6 6 8 5 2 2 2 7 6 6 6 6 7 7 7
8 7 6 6 6 6 4 5 4 4 5 3 2 3 3 2 2 2 6 5 4 4 5 5 5 7 8 5 8 9 5 3 2 2 4 8 6 6 6 6 7 7 8
8 7 6 5 5 4 4 3 2 2 3 3 3 2 2 1 2 2 2 5 5 6 4 6 7 5 3 1 2 3 2 2 1 1 5 7 6 6 6 6 6 7 8
7 7 6 5 4 3 2 2 2 2 2 2 3 2 1 1 1 0 1 1 2 2 1 2 2 2 2 2 3 2 3 2 2 1 4 7 6 6 6 6 6 6 7
7 7 6 5 4 3 3 2 2 2 2 2 2 2 1 1 1 1 1 1 1 1 2 2 1 2 2 3 3 3 3 2 3 3 3 7 6 6 6 6 6 6 7
6 6 6 6 5 4 4 3 2 2 2 2 2 2 2 1 0 1 1 1 1 1 0 1 1 2 3 2 3 3 3 3 2 3 2 6 8 6 6 6 6 6 7
7 6 6 6 6 5 4 4 3 3 2 2 1 2 2 2 0 1 1 2 1 1 1 2 2 2 3 3 3 3 3 3 2 2 3 2 5 8 7 6 6 6 6
7 7 7 5 6 5 4 3 3 2 2 2 2 2 2 1 1 2 2 1 0 1 1 1 2 1 1 2 2 2 2 2 2 3 3 2 2 3 7 8 6 6 6
8 7 7 6 5 5 4 3 3 2 2 2 2 2 2 2 2 2 1 0 1 1 1 2 0 1 1 1 2 2 2 2 2 2 2 2 2 2 2 8 8 6 6
8 8 7 7 6 5 4 4 3 3 3 3 2 2 2 2 2 2 1 1 1 1 1 0 1 1 2 2 2 1 2 2 2 1 2 2 2 2 2 2 5 7 7
9 9 8 7 7 5 4 4 4 3 3 3 2 2 3 2 2 2 1 1 1 1 1 1 2 2 2 1 2 2 2 3 1 2 2 2 1 2 1 2 2 2 5
10 9 9 8 8 7 5 4 3 2 3 2 2 2 3 3 3 3 2 2 2 2 2 1 2 2 1 1 2 2 2 3 3 2 2 2 2 1 2 2 2 1 2
10 10 8 8 8 8 6 4 3 3 3 3 3 3 3 3 3 2 2 2 2 2 1 2 2 3 2 2 2 3 2 1 0 2 2 2 2 2 2 1 2 2 2
10 9 9 8 8 7 7 6 6 5 4 3 3 2 3 3 3 3 3 3 2 2 1 3 2 2 3 3 2 2 2 3 2 1 2 2 2 3 2 2 1 2 2
9 9 8 8 8 7 7 7 7 6 4 3 3 3 4 3 3 3 2 2 2 2 2 2 2 3 3 3 3 2 2 2 4 3 2 2 2 3 2 2 1 1 2
8 8 7 8 7 7 7 7 7 6 5 4 4 4 4 3 3 4 3 3 3 2 2 3 3 3 3 3 3 3 3 3 3 3 3 3 3 2 2 2 2 2 2
Wind_Direction
115 108 108 117 120 119 117 119 123 124 124 124 127 129 128 127 125 123 125 126 122 120 118 115 115 115 114 112 111 111 113 113 116 118 119 119 119 121 124 133 152 129 122
120 114 115 117 120 120 118 119 122 123 124 124 125 128 127 127 125 124 123 124 121 119 117 115 115 115 114 112 111 113 115 119 122 125 129 134 132 129 134 140 134 112 133
120 119 123 117 119 120 120 122 123 123 126 125 123 123 125 126 125 124 124 124 123 121 118 115 115 115 116 116 116 117 119 121 120 136 165 160 135 135 137 134 125 129 138
119 120 115 115 118 122 125 126 125 127 127 126 125 124 123 125 125 125 125 126 125 124 120 118 115 115 117 118 118 119 121 124 133 187 191 139 129 128 139 136 139 145 146
120 118 112 117 115 119 128 130 127 128 128 128 127 126 126 127 128 126 127 129 128 127 125 122 120 120 121 119 119 121 124 135 167 220 128 119 117 126 143 146 149 153 152
123 121 114 116 112 112 121 125 127 129 128 128 127 127 130 133 133 131 130 132 131 128 127 127 126 126 128 124 124 126 134 163 209 174 140 143 125 130 148 157 158 156 158
124 121 118 117 115 115 118 121 123 127 127 128 127 129 133 135 137 138 136 136 136 134 135 138 139 139 140 137 140 144 159 218 233 144 149 144 111 126 151 161 161 163 162
123 122 121 124 121 118 119 122 124 125 129 129 129 135 138 141 145 147 147 147 146 146 146 147 150 151 152 156 161 167 191 243 195 169 167 127 107 134 157 162 165 169 168
125 125 127 133 133 130 124 124 128 129 131 136 142 145 146 149 153 152 154 155 154 159 162 162 165 165 167 173 177 184 205 253 249 183 168 127 123 152 172 175 176 176 179
128 126 128 131 129 138 136 132 130 132 136 143 154 154 155 167 169 167 176 159 161 166 169 172 172 175 176 179 184 194 212 233 225 185 173 128 138 169 189 189 186 185 185
136 137 137 135 135 136 130 132 146 151 153 166 166 167 188 190 171 176 139 146 166 167 180 185 182 183 196 187 192 206 223 227 193 177 140 117 154 184 196 197 194 191 191
146 145 144 144 141 139 135 138 156 156 147 169 147 163 186 175 185 166 130 165 177 188 194 194 198 209 227 195 180 204 222 215 212 176 123 136 170 197 206 204 200 198 197
147 149 151 149 145 148 146 152 148 142 146 158 149 187 182 207 178 178 159 168 182 197 196 182 205 217 219 223 230 218 239 251 226 182 130 149 182 205 210 205 202 203 199
153 158 158 157 158 164 158 154 175 173 164 154 145 210 178 199 229 102 170 167 194 185 190 216 210 213 233 232 241 245 234 241 240 195 136 154 185 206 212 211 207 203 199
161 165 166 166 162 173 180 208 187 181 196 164 155 155 212 209 204 155 159 234 250 189 191 212 218 209 222 222 228 228 243 256 258 244 152 161 186 207 211 209 211 208 204
173 174 170 179 176 185 194 201 200 194 192 201 184 159 225 248 247 236 202 209 238 244 253 233 225 220 223 227 238 243 249 243 238 251 221 169 180 194 199 204 209 213 213
174 177 177 185 181 192 206 209 202 206 193 200 185 183 223 241 232 266 229 213 237 262 227 226 227 227 219 217 224 234 241 247 240 248 260 228 181 179 189 199 208 215 222
178 179 185 189 179 185 202 218 213 212 200 207 209 189 194 206 214 246 238 212 230 236 225 219 235 241 238 241 238 249 228 213 223 231 239 233 237 197 178 183 198 213 222
184 186 188 192 188 189 190 209 223 213 218 216 211 202 174 201 209 230 231 49 231 220 233 255 127 276 260 265 236 213 223 211 219 217 227 229 217 235 204 167 184 202 215
185 191 192 192 191 195 194 201 220 222 219 215 208 193 209 208 207 242 189 165 235 202 234 306 265 258 269 263 263 228 221 209 214 203 233 207 207 219 224 206 192 187 195
187 192 199 203 191 195 200 207 208 209 216 210 201 187 197 202 192 225 244 161 226 198 238 237 248 226 242 252 241 222 200 194 203 195 220 247 218 223 204 202 239 241 180
190 194 197 202 199 202 199 212 221 228 229 218 209 173 198 196 210 203 211 220 194 195 211 227 239 270 262 238 265 245 216 183 196 194 203 216 242 231 214 195 188 211 267
194 197 200 202 201 206 204 206 203 202 225 207 201 191 195 201 210 233 217 238 227 228 199 220 233 241 259 242 263 283 280 276 231 169 204 207 227 245 240 211 203 196 227
199 197 199 201 205 203 204 211 211 215 217 214 216 197 197 203 209 210 215 226 244 247 230 239 223 248 256 254 224 256 298 333 290 232 202 197 211 227 244 256 220 181 211
194 194 192 195 200 200 207 210 216 220 217 210 208 196 214 202 213 218 211 216 228 243 245 267 256 256 250 264 263 247 242 235 255 266 254 243 226 221 212 232 245 239 222
187 188 185 185 194 198 203 209 214 216 219 219 214 204 211 205 204 203 209 217 228 244 240 247 247 235 258 272 279 271 251 247 245 253 254 241 240 225 222 237 244 232 230